• In Deutschland
  • Länderverzeichnis
  • Für 7 Tage
  • Wassertemperatur
  • Satellitenkarten
  • Wetterkarte
  • Widgets
  • user-avatar
    Anmelden

    Stündliche Wetter Ondjiwa

    Heute, 18 Januar, Donnerstag

    Zeit Temperatur Niederschläge Wind Luftdruck Luftfeuchtigkeit
    00:00 +28°C° 0,1 mm 4 m/S 666 mmHg 48%
    01:00 +27°C° 0 mm 3 m/S 666 mmHg 52%
    02:00 +26°C° 0,1 mm 3 m/S 666 mmHg 56%
    03:00 +26°C° 0,1 mm 3 m/S 666 mmHg 60%
    04:00 +25°C° 0,1 mm 3 m/S 666 mmHg 64%
    05:00 +25°C° 0,1 mm 2 m/S 666 mmHg 64%
    06:00 +25°C° 0,1 mm 2 m/S 666 mmHg 63%
    07:00 +25°C° 0,1 mm 2 m/S 667 mmHg 63%
    08:00 +28°C° 0 mm 2 m/S 667 mmHg 55%
    09:00 +30°C° 0 mm 2 m/S 667 mmHg 46%
    10:00 +32°C° 0 mm 1 m/S 668 mmHg 38%
    11:00 +34°C° 0 mm 2 m/S 667 mmHg 36%
    12:00 +34°C° 0 mm 3 m/S 667 mmHg 34%
    13:00 +35°C° 0 mm 3 m/S 666 mmHg 31%
    14:00 +35°C° 0 mm 3 m/S 666 mmHg 31%
    15:00 +35°C° 0 mm 3 m/S 666 mmHg 31%
    16:00 +35°C° 0 mm 3 m/S 665 mmHg 31%
    17:00 +34°C° 0 mm 2 m/S 665 mmHg 33%
    18:00 +32°C° 0 mm 2 m/S 665 mmHg 35%
    19:00 +31°C° 0 mm 2 m/S 665 mmHg 37%
    20:00 +30°C° 0 mm 2 m/S 665 mmHg 38%
    21:00 +30°C° 0 mm 2 m/S 666 mmHg 40%
    22:00 +29°C° 0 mm 2 m/S 666 mmHg 41%
    23:00 +28°C° 0 mm 2 m/S 666 mmHg 44%

    Morgen, 19 Januar, Freitag

    Zeit Temperatur Niederschläge Wind Luftdruck Luftfeuchtigkeit
    00:00 +28°C° 0 mm 2 m/S 665 mmHg 47%
    01:00 +27°C° 0 mm 2 m/S 665 mmHg 50%
    02:00 +26°C° 0 mm 2 m/S 665 mmHg 53%
    03:00 +25°C° 0 mm 2 m/S 665 mmHg 55%
    04:00 +25°C° 0 mm 2 m/S 665 mmHg 58%
    05:00 +25°C° 0 mm 2 m/S 665 mmHg 57%
    06:00 +26°C° 0 mm 2 m/S 666 mmHg 56%
    07:00 +26°C° 0 mm 2 m/S 666 mmHg 55%
    08:00 +27°C° 0 mm 2 m/S 666 mmHg 53%
    09:00 +28°C° 0 mm 2 m/S 666 mmHg 52%
    10:00 +29°C° 0 mm 2 m/S 666 mmHg 50%
    11:00 +30°C° 0 mm 2 m/S 666 mmHg 46%
    12:00 +31°C° 0 mm 1 m/S 666 mmHg 42%
    13:00 +33°C° 0 mm 1 m/S 666 mmHg 38%
    14:00 +33°C° 0 mm 1 m/S 665 mmHg 36%
    15:00 +34°C° 0 mm 2 m/S 665 mmHg 35%
    16:00 +35°C° 0 mm 2 m/S 664 mmHg 33%
    17:00 +34°C° 0 mm 2 m/S 664 mmHg 35%
    18:00 +32°C° 0 mm 2 m/S 664 mmHg 38%
    19:00 +31°C° 0 mm 2 m/S 664 mmHg 40%
    20:00 +29°C° 0,2 mm 2 m/S 665 mmHg 44%
    21:00 +28°C° 0,2 mm 2 m/S 665 mmHg 48%
    22:00 +27°C° 0,2 mm 2 m/S 665 mmHg 52%
    23:00 +27°C° 0 mm 2 m/S 665 mmHg 56%

    übermorgen, 20 Januar, Samstag

    Zeit Temperatur Niederschläge Wind Luftdruck Luftfeuchtigkeit
    00:00 +26°C° 0 mm 2 m/S 665 mmHg 60%
    01:00 +25°C° 0 mm 3 m/S 665 mmHg 64%
    02:00 +25°C° 0,6 mm 2 m/S 665 mmHg 66%
    03:00 +24°C° 0,6 mm 2 m/S 664 mmHg 68%
    04:00 +24°C° 0,6 mm 2 m/S 664 mmHg 70%
    05:00 +24°C° 0 mm 2 m/S 665 mmHg 71%
    06:00 +24°C° 0 mm 2 m/S 665 mmHg 71%
    07:00 +24°C° 0 mm 2 m/S 665 mmHg 72%
    08:00 +26°C° 0 mm 2 m/S 666 mmHg 62%
    09:00 +29°C° 0 mm 2 m/S 666 mmHg 53%
    10:00 +31°C° 0 mm 1 m/S 667 mmHg 43%
    11:00 +32°C° 0 mm 1 m/S 666 mmHg 40%
    12:00 +33°C° 0 mm 1 m/S 666 mmHg 36%
    13:00 +34°C° 0 mm 1 m/S 665 mmHg 32%
    14:00 +34°C° 0 mm 1 m/S 665 mmHg 33%
    15:00 +33°C° 0 mm 1 m/S 664 mmHg 33%
    16:00 +33°C° 0 mm 1 m/S 664 mmHg 34%
    17:00 +32°C° 0 mm 1 m/S 664 mmHg 36%
    18:00 +31°C° 0 mm 1 m/S 664 mmHg 38%
    19:00 +30°C° 0 mm 1 m/S 665 mmHg 40%
    20:00 +29°C° 0 mm 2 m/S 665 mmHg 44%
    21:00 +28°C° 0 mm 3 m/S 666 mmHg 49%
    22:00 +27°C° 0 mm 4 m/S 666 mmHg 53%
    23:00 +26°C° 1,3 mm 4 m/S 666 mmHg 60%

    21 Januar, Sonntag

    Zeit Temperatur Niederschläge Wind Luftdruck Luftfeuchtigkeit
    00:00 +25°C° 1,3 mm 4 m/S 665 mmHg 67%
    01:00 +24°C° 1,3 mm 3 m/S 665 mmHg 73%
    02:00 +22°C° 1,5 mm 3 m/S 665 mmHg 75%
    03:00 +22°C° 1,5 mm 4 m/S 665 mmHg 76%
    04:00 +22°C° 1,5 mm 4 m/S 665 mmHg 78%
    05:00 +22°C° 0 mm 3 m/S 665 mmHg 77%
    06:00 +22°C° 0 mm 3 m/S 666 mmHg 76%
    07:00 +22°C° 0 mm 3 m/S 666 mmHg 75%
    08:00 +24°C° 0 mm 3 m/S 667 mmHg 69%
    09:00 +26°C° 0 mm 3 m/S 667 mmHg 62%
    10:00 +27°C° 0 mm 3 m/S 667 mmHg 56%
    11:00 +28°C° 0 mm 2 m/S 667 mmHg 51%
    12:00 +30°C° 0 mm 2 m/S 666 mmHg 45%
    13:00 +31°C° 0 mm 2 m/S 666 mmHg 40%
    14:00 +31°C° 0 mm 2 m/S 665 mmHg 38%
    15:00 +32°C° 0 mm 2 m/S 665 mmHg 36%
    16:00 +32°C° 0 mm 1 m/S 665 mmHg 34%
    17:00 +31°C° 0 mm 1 m/S 665 mmHg 36%
    18:00 +30°C° 0 mm 1 m/S 665 mmHg 38%
    19:00 +29°C° 0 mm 1 m/S 665 mmHg 40%
    20:00 +28°C° 0 mm 1 m/S 665 mmHg 43%
    21:00 +28°C° 0 mm 2 m/S 666 mmHg 45%
    22:00 +27°C° 0 mm 2 m/S 666 mmHg 48%
    23:00 +26°C° 0,2 mm 2 m/S 666 mmHg 51%

    22 Januar, Montag

    Zeit Temperatur Niederschläge Wind Luftdruck Luftfeuchtigkeit
    00:00 +25°C° 0,2 mm 3 m/S 666 mmHg 55%
    01:00 +25°C° 0,2 mm 3 m/S 665 mmHg 58%
    02:00 +24°C° 0,1 mm 3 m/S 665 mmHg 57%
    03:00 +24°C° 0,1 mm 3 m/S 665 mmHg 56%
    04:00 +24°C° 0,1 mm 3 m/S 665 mmHg 55%
    05:00 +24°C° 0 mm 3 m/S 666 mmHg 55%
    06:00 +24°C° 0 mm 3 m/S 666 mmHg 55%
    07:00 +24°C° 0 mm 3 m/S 667 mmHg 54%
    08:00 +26°C° 0 mm 3 m/S 667 mmHg 47%
    09:00 +28°C° 0 mm 3 m/S 668 mmHg 39%
    10:00 +29°C° 0 mm 3 m/S 668 mmHg 32%
    11:00 +31°C° 0 mm 3 m/S 668 mmHg 29%
    12:00 +32°C° 0 mm 2 m/S 667 mmHg 27%
    13:00 +34°C° 0 mm 2 m/S 667 mmHg 24%
    14:00 +34°C° 0 mm 2 m/S 666 mmHg 25%
    15:00 +34°C° 0 mm 3 m/S 666 mmHg 25%
    16:00 +34°C° 0 mm 3 m/S 665 mmHg 26%
    17:00 +32°C° 0 mm 2 m/S 665 mmHg 29%
    18:00 +30°C° 0 mm 2 m/S 665 mmHg 33%
    19:00 +29°C° 0 mm 2 m/S 665 mmHg 37%
    20:00 +28°C° 0 mm 2 m/S 665 mmHg 41%
    21:00 +27°C° 0 mm 2 m/S 666 mmHg 46%
    22:00 +26°C° 0 mm 2 m/S 666 mmHg 50%
    23:00 +26°C° 0 mm 3 m/S 665 mmHg 53%

    23 Januar, Dienstag

    Zeit Temperatur Niederschläge Wind Luftdruck Luftfeuchtigkeit
    00:00 +25°C° 0 mm 3 m/S 665 mmHg 56%
    01:00 +23°C° 0 mm 4 m/S 665 mmHg 59%
    02:00 +24°C° 0 mm 3 m/S 665 mmHg 57%
    03:00 +22°C° 0 mm 3 m/S 665 mmHg 55%
    04:00 +22°C° 0 mm 3 m/S 665 mmHg 54%
    05:00 +22°C° 0 mm 3 m/S 665 mmHg 52%
    06:00 +24°C° 0 mm 3 m/S 666 mmHg 50%
    07:00 +24°C° 0 mm 3 m/S 666 mmHg 48%
    08:00 +26°C° 0 mm 3 m/S 666 mmHg 41%
    09:00 +28°C° 0 mm 3 m/S 667 mmHg 35%
    10:00 +31°C° 0 mm 3 m/S 667 mmHg 28%
    11:00 +32°C° 0 mm 2 m/S 666 mmHg 26%
    12:00 +35°C° 0 mm 2 m/S 666 mmHg 24%
    13:00 +36°C° 0 mm 2 m/S 666 mmHg 23%
    14:00 +36°C° 0 mm 2 m/S 665 mmHg 24%
    15:00 +35°C° 0 mm 2 m/S 664 mmHg 25%
    16:00 +35°C° 0 mm 2 m/S 664 mmHg 26%
    17:00 +32°C° 0 mm 2 m/S 664 mmHg 29%
    18:00 +31°C° 0 mm 1 m/S 664 mmHg 32%
    19:00 +30°C° 0 mm 1 m/S 664 mmHg 35%
    20:00 +29°C° 0 mm 1 m/S 664 mmHg 38%
    21:00 +28°C° 0 mm 2 m/S 664 mmHg 41%
    22:00 +27°C° 0 mm 2 m/S 665 mmHg 44%
    23:00 +27°C° 0,1 mm 2 m/S 665 mmHg 47%
    Mehr zeigen